Regional Weather Roundup
Issued by NWS

Home | Current Version | Previous Version | Graphics & Text | Print | Product List | Glossary On
Versions: 1 2 3 4 5 6 7 8 9 10 11 12 13 14 15 16 17 18 19 20 21 22 23 24 25 26 27 28 29 30 31 32 33 34 35 36 37 38 39 40 41 42 43 44 45 46 47 48 49 50
753
ASUS45 KCYS 231510
RWRWY

WYOMING REGIONAL WEATHER ROUNDUP
NATIONAL WEATHER SERVICE CHEYENNE WY
900 AM MDT MON APR 23 2018

NOTE:  "FAIR" INDICATES FEW OR NO CLOUDS BELOW 12,000 FEET
WITH NO SIGNIFICANT WEATHER AND/OR OBSTRUCTIONS TO VISIBILITY.

WYZ001-231600-
YELLOWSTONE NATIONAL PARK

CITY           SKY/WX    TMP DP  RH WIND       PRES   REMARKS
LK YELLOWSTONE   N/A     32  31  96 CALM      30.13R
W YELLOWSTONE  NOT AVBL

$$
WYZ002>013-054>058-071-098>099-231600-
NORTHERN WYOMING

CITY           SKY/WX    TMP DP  RH WIND       PRES   REMARKS
JACKSON        CLOUDY    37  35  92 SW6       30.13R WCI  32
CODY           LGT RAIN  36  32  85 N17       30.18S WCI  26
GREYBULL       CLOUDY    47  33  58 NW24G36   30.08
WORLAND        FAIR      45  34  65 NW15      30.12R
SHERIDAN       PTSUNNY   46  33  60 NW17      30.13R
BUFFALO        FAIR      45  31  58 N25G37    30.08R
GILLETTE         N/A    N/A N/A N/A MISG      30.05S
HULETT         FAIR      55  37  50 E15       30.08F
NEWCASTLE      FAIR      57  34  41 SE14G23   30.06S

$$
WYZ014>020-022>026-101>103-231600-
CENTRAL WYOMING

CITY           SKY/WX    TMP DP  RH WIND       PRES   REMARKS
BIG PINEY      FAIR      38  36  92 E8        30.14R WCI  32
PINEDALE       FAIR      36  34  93 SE5       30.14R WCI  32
DUBOIS         CLOUDY    34  32  93 W8        30.08S WCI  27
LANDER         CLOUDY    45  29  53 NE8       30.09R
RIVERTON       CLOUDY    43  30  60 N21       30.11R
CASPER         FAIR      48  38  68 N10       30.03R
DOUGLAS        PTSUNNY   49  40  71 SE15G24   30.03F

$$
WYZ021-027>030-104>119-231600-
SOUTHERN WYOMING

CITY           SKY/WX    TMP DP  RH WIND       PRES   REMARKS
EVANSTON       FAIR      40  38  93 S13       30.17R WCI  32
KEMMERER       FAIR      37  34  87 SW10      30.16R WCI  30
FORT BRIDGER   PTSUNNY   40  39  99 SW15      30.19F WCI  31
ROCK SPRINGS   FAIR      46  27  47 W22G32    30.17R
DIXON          FAIR      56  31  38 E7        30.10S
RAWLINS          N/A    N/A N/A N/A MISG      30.06F
SARATOGA       FAIR      55  30  38 S14       30.08F
LARAMIE        FAIR      51  34  52 S10       30.10F
CHEYENNE       FAIR      55  38  52 S10       30.10S
TORRINGTON     FAIR      46  40  79 SE9       30.08S
PINE BLUFFS    FAIR      46  39  76 S3        30.10F

$$




USA.gov is the U.S. government's official web portal to all federal, state and local government web resources and services.